User: anonymous   Login
Location: Newark
(47.5833°N, 8.1500°E)
Time: 16:53:17
(UTC+00:00)
Language:

Transit 2A Rocket - Orbit

View from above orbital plane
View from above orbital plane
View from above satellite
View from above satellite

Ground track
Ground track

The orbit data is extracted from the following two-line orbital elements,

1    47U 60007C   20294.95251111 -.00000050 +00000-0 +13924-4 0  9995
2    47 066.6657 179.4109 0232043 212.9886 145.6562 14.42105852153213
Epoch (UTC): 20 October 2020 22:51:36
Eccentricity: 0.0232043
inclination: 66.6657°
perigee height: 586 km
apogee height: 917 km
right ascension of ascending node: 179.4109°
argument of perigee: 212.9886°
revolutions per day: 14.42105852
mean anomaly at epoch: 145.6562°
orbit number at epoch: 15321

The dashed part of the orbit path shows where the satellite is in the earth's shadow,  

DLR